TimeCST,TemperatureF,Dew PointF,Humidity,Sea Level PressureIn,VisibilityMPH,Wind Direction,Wind SpeedMPH,Gust SpeedMPH,PrecipitationIn,Events,Conditions,WindDirDegrees,DateUTC
12:15 AM,39.7,27.1,61,30.35,10.0,North,15.0,20.7,N/A,,Clear,360,2013-11-27 06:15:00
12:35 AM,39.2,27.3,62,30.34,10.0,North,12.7,-,N/A,,Clear,360,2013-11-27 06:35:00
12:55 AM,39.2,27.5,63,30.34,10.0,North,11.5,18.4,N/A,,Clear,360,2013-11-27 06:55:00
1:15 AM,38.8,27.5,64,30.35,10.0,North,11.5,17.3,N/A,,Clear,360,2013-11-27 07:15:00
1:35 AM,38.7,27.7,65,30.35,10.0,North,11.5,-,N/A,,Clear,350,2013-11-27 07:35:00
1:55 AM,38.5,27.9,66,30.35,10.0,North,11.5,-,N/A,,Clear,350,2013-11-27 07:55:00
2:15 AM,38.5,28.0,66,30.36,10.0,North,8.1,-,N/A,,Clear,350,2013-11-27 08:15:00
2:35 AM,37.9,28.2,68,30.36,10.0,North,9.2,-,N/A,,Clear,350,2013-11-27 08:35:00
2:55 AM,37.4,28.0,69,30.36,10.0,North,10.4,-,N/A,,Clear,360,2013-11-27 08:55:00
3:15 AM,36.9,28.0,70,30.36,10.0,North,12.7,-,N/A,,Clear,360,2013-11-27 09:15:00
3:35 AM,36.0,27.9,72,30.37,10.0,North,9.2,-,N/A,,Clear,350,2013-11-27 09:35:00
3:55 AM,35.2,27.5,73,30.37,10.0,North,8.1,-,N/A,,Clear,360,2013-11-27 09:55:00
4:15 AM,35.2,27.3,73,30.37,10.0,North,9.2,-,N/A,,Clear,10,2013-11-27 10:15:00
4:35 AM,34.5,27.0,74,30.38,10.0,North,5.8,-,N/A,,Clear,350,2013-11-27 10:35:00
4:55 AM,32.5,26.6,79,30.38,10.0,Calm,Calm,-,N/A,,Clear,0,2013-11-27 10:55:00
5:15 AM,32.9,26.2,76,30.39,10.0,North,11.5,-,N/A,,Clear,360,2013-11-27 11:15:00
5:35 AM,33.1,24.6,71,30.39,10.0,North,11.5,16.1,N/A,,Clear,10,2013-11-27 11:35:00
5:55 AM,32.2,24.8,74,30.39,10.0,North,8.1,-,N/A,,Clear,360,2013-11-27 11:55:00
6:15 AM,31.6,25.3,78,30.40,10.0,NNW,4.6,-,N/A,,Clear,340,2013-11-27 12:15:00
6:35 AM,29.8,25.0,82,30.41,10.0,North,4.6,-,N/A,,Clear,350,2013-11-27 12:35:00
6:55 AM,30.2,25.5,83,30.43,10.0,NNE,4.6,-,N/A,,Clear,20,2013-11-27 12:55:00
7:15 AM,29.7,25.2,83,30.43,10.0,Calm,Calm,-,N/A,,Clear,0,2013-11-27 13:15:00
7:35 AM,29.1,25.5,86,30.43,10.0,NNW,4.6,-,N/A,,Clear,340,2013-11-27 13:35:00
7:55 AM,30.6,25.9,83,30.44,10.0,NNW,3.5,-,N/A,,Clear,340,2013-11-27 13:55:00
8:15 AM,32.0,25.5,77,30.44,10.0,North,4.6,-,N/A,,Clear,350,2013-11-27 14:15:00
8:35 AM,32.5,25.5,75,30.45,10.0,North,6.9,-,N/A,,Clear,10,2013-11-27 14:35:00
8:55 AM,33.3,25.3,73,30.45,10.0,NNE,8.1,-,N/A,,Clear,20,2013-11-27 14:55:00
9:15 AM,34.5,22.5,61,30.45,10.0,NNE,9.2,-,N/A,,Clear,30,2013-11-27 15:15:00
9:35 AM,35.2,19.4,53,30.45,10.0,NNE,10.4,-,N/A,,Clear,20,2013-11-27 15:35:00
9:55 AM,36.3,18.3,48,30.45,10.0,North,9.2,16.1,N/A,,Clear,10,2013-11-27 15:55:00
10:15 AM,37.4,18.1,46,30.45,10.0,NNE,9.2,-,N/A,,Clear,20,2013-11-27 16:15:00
10:35 AM,37.6,16.0,41,30.45,10.0,North,10.4,-,N/A,,Clear,350,2013-11-27 16:35:00
10:55 AM,38.7,15.8,39,30.45,10.0,NNE,8.1,-,N/A,,Clear,20,2013-11-27 16:55:00
11:15 AM,39.0,16.3,40,30.44,10.0,North,5.8,-,N/A,,Clear,10,2013-11-27 17:15:00
11:35 AM,40.1,16.0,38,30.44,10.0,North,9.2,-,N/A,,Clear,360,2013-11-27 17:35:00
11:55 AM,40.6,15.1,35,30.43,10.0,North,4.6,-,N/A,,Clear,350,2013-11-27 17:55:00
12:15 PM,41.4,15.4,35,30.41,10.0,North,11.5,-,N/A,,Clear,360,2013-11-27 18:15:00
12:35 PM,42.8,15.8,34,30.39,10.0,North,6.9,-,N/A,,Clear,350,2013-11-27 18:35:00
12:55 PM,43.3,17.6,36,30.38,10.0,North,9.2,-,N/A,,Clear,360,2013-11-27 18:55:00
1:15 PM,43.7,16.5,34,30.37,10.0,NNW,4.6,-,N/A,,Clear,330,2013-11-27 19:15:00
1:35 PM,45.0,17.8,34,30.36,10.0,NNE,4.6,-,N/A,,Clear,20,2013-11-27 19:35:00
1:55 PM,45.7,18.0,33,30.35,10.0,North,3.5,-,N/A,,Clear,350,2013-11-27 19:55:00
2:15 PM,45.5,16.3,31,30.35,10.0,NNW,8.1,-,N/A,,Clear,340,2013-11-27 20:15:00
2:35 PM,46.2,16.9,31,30.34,10.0,NW,3.5,-,N/A,,Clear,310,2013-11-27 20:35:00
2:55 PM,46.0,16.2,30,30.34,10.0,Calm,Calm,-,N/A,,Clear,0,2013-11-27 20:55:00
3:15 PM,46.8,17.1,31,30.33,10.0,Calm,Calm,-,N/A,,Clear,0,2013-11-27 21:15:00
3:35 PM,46.9,15.6,29,30.33,10.0,NNE,3.5,-,N/A,,Clear,30,2013-11-27 21:35:00
3:55 PM,47.1,16.0,29,30.33,10.0,North,4.6,-,N/A,,Clear,350,2013-11-27 21:55:00
4:15 PM,46.9,17.2,31,30.33,10.0,NNE,5.8,-,N/A,,Clear,20,2013-11-27 22:15:00
4:35 PM,46.9,14.9,28,30.32,10.0,Calm,Calm,-,N/A,,Clear,0,2013-11-27 22:35:00
4:55 PM,46.4,16.9,31,30.33,10.0,North,3.5,-,N/A,,Clear,360,2013-11-27 22:55:00
5:15 PM,45.0,20.3,38,30.33,10.0,North,3.5,-,N/A,,Clear,350,2013-11-27 23:15:00
5:35 PM,41.9,21.6,44,30.33,10.0,North,4.6,-,N/A,,Clear,360,2013-11-27 23:35:00
5:55 PM,40.6,22.1,48,30.33,10.0,Calm,Calm,-,N/A,,Clear,0,2013-11-27 23:55:00
6:15 PM,38.3,25.5,60,30.34,10.0,Calm,Calm,-,N/A,,Clear,0,2013-11-28 00:15:00
6:35 PM,38.3,23.0,54,30.34,10.0,Calm,Calm,-,N/A,,Clear,0,2013-11-28 00:35:00
6:55 PM,36.3,26.2,67,30.33,10.0,Calm,Calm,-,N/A,,Clear,0,2013-11-28 00:55:00
7:15 PM,35.6,28.8,76,30.35,10.0,WNW,4.6,-,N/A,,Clear,300,2013-11-28 01:15:00
7:35 PM,35.2,28.9,78,30.34,10.0,NNW,3.5,-,N/A,,Clear,340,2013-11-28 01:35:00
7:55 PM,34.5,29.1,81,30.34,10.0,Calm,Calm,-,N/A,,Clear,0,2013-11-28 01:55:00
8:15 PM,34.7,28.4,78,30.35,10.0,Calm,Calm,-,N/A,,Clear,0,2013-11-28 02:15:00
8:35 PM,33.3,28.8,84,30.35,10.0,NW,3.5,-,N/A,,Clear,310,2013-11-28 02:35:00
8:55 PM,33.1,29.1,85,30.35,10.0,Calm,Calm,-,N/A,,Clear,0,2013-11-28 02:55:00
9:15 PM,31.5,27.9,87,30.35,10.0,North,4.6,-,N/A,,Clear,10,2013-11-28 03:15:00
9:35 PM,32.0,28.2,86,30.36,10.0,WNW,3.5,-,N/A,,Clear,290,2013-11-28 03:35:00
9:55 PM,32.0,27.9,85,30.35,10.0,Calm,Calm,-,N/A,,Clear,0,2013-11-28 03:55:00
10:15 PM,31.1,27.1,85,30.35,10.0,Calm,Calm,-,N/A,,Clear,0,2013-11-28 04:15:00
10:35 PM,31.3,27.1,85,30.34,10.0,Calm,Calm,-,N/A,,Clear,0,2013-11-28 04:35:00
10:55 PM,30.7,27.7,88,30.35,10.0,WNW,3.5,-,N/A,,Clear,300,2013-11-28 04:55:00
11:15 PM,30.9,27.9,88,30.34,10.0,Calm,Calm,-,N/A,,Clear,0,2013-11-28 05:15:00
11:35 PM,30.7,27.5,88,30.35,10.0,Calm,Calm,-,N/A,,Clear,0,2013-11-28 05:35:00
11:55 PM,29.1,26.4,90,30.35,10.0,Calm,Calm,-,N/A,,Clear,0,2013-11-28 05:55:00